TimeCST,TemperatureF,Dew PointF,Humidity,Sea Level PressureIn,VisibilityMPH,Wind Direction,Wind SpeedMPH,Gust SpeedMPH,PrecipitationIn,Events,Conditions,WindDirDegrees,DateUTC
12:15 AM,19.4,15.8,86,30.36,10.0,North,-9999.0,-,N/A,,Clear,0,2013-01-04 06:15:00
12:35 AM,19.4,14.0,80,30.36,10.0,North,-9999.0,-,N/A,,Clear,0,2013-01-04 06:35:00
12:55 AM,19.4,14.0,80,30.36,10.0,North,-9999.0,-,N/A,,Clear,0,2013-01-04 06:55:00
1:15 AM,19.4,14.0,80,30.36,10.0,North,-9999.0,-,N/A,,Clear,0,2013-01-04 07:15:00
1:35 AM,19.4,15.8,86,30.35,10.0,North,-9999.0,-,N/A,,Clear,0,2013-01-04 07:35:00
1:55 AM,21.2,17.6,86,30.34,10.0,North,-9999.0,-,N/A,,Clear,0,2013-01-04 07:55:00
2:15 AM,21.2,17.6,86,30.33,10.0,North,-9999.0,-,N/A,,Clear,0,2013-01-04 08:15:00
2:35 AM,21.2,17.6,86,30.35,10.0,North,-9999.0,-,N/A,,Clear,0,2013-01-04 08:35:00
2:55 AM,21.2,17.6,86,30.35,10.0,North,-9999.0,-,N/A,,Clear,0,2013-01-04 08:55:00
3:15 AM,19.4,15.8,86,30.35,10.0,North,-9999.0,-,N/A,,Clear,0,2013-01-04 09:15:00
5:55 AM,19.4,15.8,86,30.33,10.0,North,-9999.0,-,N/A,,Clear,0,2013-01-04 11:55:00
6:15 AM,17.6,14.0,86,30.33,10.0,North,-9999.0,-,N/A,,Clear,0,2013-01-04 12:15:00
6:35 AM,17.6,14.0,86,30.33,10.0,North,-9999.0,-,N/A,,Clear,0,2013-01-04 12:35:00
6:55 AM,17.6,14.0,86,30.34,10.0,North,-9999.0,-,N/A,,Clear,0,2013-01-04 12:55:00
7:15 AM,19.4,15.8,86,30.34,10.0,North,-9999.0,-,N/A,,Clear,0,2013-01-04 13:15:00
7:35 AM,19.4,17.6,93,30.35,10.0,North,-9999.0,-,N/A,,Clear,0,2013-01-04 13:35:00
7:55 AM,21.2,17.6,86,30.34,10.0,North,-9999.0,-,N/A,,Clear,0,2013-01-04 13:55:00
8:15 AM,19.4,15.8,86,30.34,10.0,North,-9999.0,-,N/A,,Clear,0,2013-01-04 14:15:00
8:35 AM,21.2,19.4,93,30.34,10.0,North,-9999.0,-,N/A,,Scattered Clouds,0,2013-01-04 14:35:00
8:55 AM,23.0,19.4,86,30.35,10.0,North,-9999.0,-,N/A,,Scattered Clouds,0,2013-01-04 14:55:00
9:15 AM,24.8,21.2,86,30.35,10.0,North,-9999.0,-,N/A,,Scattered Clouds,0,2013-01-04 15:15:00
9:35 AM,26.6,21.2,80,30.35,10.0,North,-9999.0,-,N/A,,Clear,0,2013-01-04 15:35:00
9:55 AM,26.6,23.0,86,30.35,10.0,North,-9999.0,-,N/A,,Clear,0,2013-01-04 15:55:00
10:15 AM,28.4,23.0,80,30.35,10.0,North,-9999.0,-,N/A,,Clear,0,2013-01-04 16:15:00
10:35 AM,28.4,24.8,86,30.35,10.0,North,-9999.0,-,N/A,,Clear,0,2013-01-04 16:35:00
10:55 AM,30.2,26.6,86,30.35,10.0,North,-9999.0,-,N/A,,Clear,0,2013-01-04 16:55:00
11:15 AM,32.0,26.6,80,30.34,10.0,North,-9999.0,-,N/A,,Scattered Clouds,0,2013-01-04 17:15:00
11:35 AM,32.0,26.6,80,30.33,10.0,North,-9999.0,-,N/A,,Mostly Cloudy,0,2013-01-04 17:35:00
11:55 AM,32.0,26.6,80,30.33,10.0,North,-9999.0,-,N/A,,Mostly Cloudy,0,2013-01-04 17:55:00
12:15 PM,32.0,26.6,80,30.31,10.0,North,-9999.0,-,N/A,,Mostly Cloudy,0,2013-01-04 18:15:00
12:35 PM,32.0,26.6,80,30.29,10.0,North,-9999.0,-,N/A,,Mostly Cloudy,0,2013-01-04 18:35:00
12:55 PM,32.0,24.8,75,30.28,10.0,North,-9999.0,-,N/A,,Mostly Cloudy,0,2013-01-04 18:55:00
1:15 PM,33.8,24.8,70,30.27,10.0,North,-9999.0,-,N/A,,Mostly Cloudy,0,2013-01-04 19:15:00
1:35 PM,32.0,24.8,75,30.26,10.0,North,-9999.0,-,N/A,,Mostly Cloudy,0,2013-01-04 19:35:00
1:55 PM,33.8,24.8,70,30.24,10.0,North,-9999.0,-,N/A,,Mostly Cloudy,0,2013-01-04 19:55:00
2:15 PM,33.8,24.8,70,30.24,10.0,North,-9999.0,-,N/A,,Mostly Cloudy,0,2013-01-04 20:15:00
2:35 PM,33.8,24.8,70,30.23,10.0,North,-9999.0,-,N/A,,Mostly Cloudy,0,2013-01-04 20:35:00
2:55 PM,33.8,28.4,81,30.22,7.0,North,-9999.0,-,N/A,Snow,Light Snow,0,2013-01-04 20:55:00
3:15 PM,33.8,26.6,75,30.21,10.0,North,-9999.0,-,N/A,,Mostly Cloudy,0,2013-01-04 21:15:00
3:35 PM,35.6,26.6,70,30.21,10.0,North,-9999.0,-,N/A,,Mostly Cloudy,0,2013-01-04 21:35:00
3:55 PM,33.8,24.8,70,30.21,10.0,North,-9999.0,-,N/A,,Mostly Cloudy,0,2013-01-04 21:55:00
4:15 PM,33.8,24.8,70,30.21,10.0,North,-9999.0,-,N/A,,Mostly Cloudy,0,2013-01-04 22:15:00
4:35 PM,33.8,24.8,70,30.20,10.0,North,-9999.0,-,N/A,,Mostly Cloudy,0,2013-01-04 22:35:00
4:55 PM,32.0,24.8,75,30.20,10.0,North,-9999.0,-,N/A,,Overcast,0,2013-01-04 22:55:00
5:15 PM,32.0,26.6,80,30.19,10.0,North,-9999.0,-,N/A,,Overcast,0,2013-01-04 23:15:00
5:35 PM,32.0,23.0,69,30.19,10.0,North,-9999.0,-,N/A,,Mostly Cloudy,0,2013-01-04 23:35:00
5:55 PM,32.0,23.0,69,30.19,10.0,North,-9999.0,-,N/A,,Mostly Cloudy,0,2013-01-04 23:55:00
6:15 PM,32.0,23.0,69,30.19,10.0,North,-9999.0,-,N/A,,Mostly Cloudy,0,2013-01-05 00:15:00
6:35 PM,32.0,23.0,69,30.19,10.0,North,-9999.0,-,N/A,,Overcast,0,2013-01-05 00:35:00
6:55 PM,32.0,23.0,69,30.19,10.0,North,-9999.0,-,N/A,,Mostly Cloudy,0,2013-01-05 00:55:00
7:15 PM,32.0,23.0,69,30.19,10.0,North,-9999.0,-,N/A,,Mostly Cloudy,0,2013-01-05 01:15:00
7:35 PM,32.0,23.0,69,30.19,10.0,North,-9999.0,-,N/A,,Mostly Cloudy,0,2013-01-05 01:35:00
7:55 PM,32.0,23.0,69,30.18,10.0,North,-9999.0,-,N/A,,Mostly Cloudy,0,2013-01-05 01:55:00
8:15 PM,32.0,23.0,69,30.18,10.0,North,-9999.0,-,N/A,,Overcast,0,2013-01-05 02:15:00
8:35 PM,32.0,23.0,69,30.18,10.0,North,-9999.0,-,N/A,,Overcast,0,2013-01-05 02:35:00
8:55 PM,32.0,23.0,69,30.18,10.0,North,-9999.0,-,N/A,,Overcast,0,2013-01-05 02:55:00
9:15 PM,32.0,23.0,69,30.17,10.0,North,-9999.0,-,N/A,,Overcast,0,2013-01-05 03:15:00
9:35 PM,30.2,23.0,75,30.17,10.0,North,-9999.0,-,N/A,,Overcast,0,2013-01-05 03:35:00
9:55 PM,30.2,23.0,75,30.16,10.0,North,-9999.0,-,N/A,,Overcast,0,2013-01-05 03:55:00
10:15 PM,30.2,23.0,75,30.16,10.0,North,-9999.0,-,N/A,,Overcast,0,2013-01-05 04:15:00
10:35 PM,30.2,24.8,80,30.15,10.0,North,-9999.0,-,N/A,,Overcast,0,2013-01-05 04:35:00
10:55 PM,30.2,24.8,80,30.14,10.0,North,-9999.0,-,N/A,,Overcast,0,2013-01-05 04:55:00
11:15 PM,30.2,24.8,80,30.14,10.0,North,-9999.0,-,N/A,,Overcast,0,2013-01-05 05:15:00
11:35 PM,30.2,24.8,80,30.14,10.0,North,-9999.0,-,N/A,,Overcast,0,2013-01-05 05:35:00
11:55 PM,30.2,24.8,80,30.14,10.0,North,-9999.0,-,N/A,,Overcast,0,2013-01-05 05:55:00